Location: De Har
(53.3413°N, 6.6858°E)
Time: 20:59:52
(UTC+00:00)

Cosmos 2082 Rocket - Pass Details

Date: 22 April 2026
Orbit: 831 x 853 km, 71.0° (Epoch: 21 May)

Event Time Altitude Azimuth Distance (km) Brightness Sun altitude
Exits shadow 02:41:27 11° 264° (W) 2,390 4.1 -13.1°
Maximum altitude 02:46:05 29° 322° (NW) 1,521 3.6 -12.5°
Drops below altitude 10° 02:51:02 10° 22° (NNE) 2,494 5.7 -12.0°
Sets 02:53:51 0° 33° (NNE) 3,432 7.0 -11.7°
